Starlink 32283

operational
NORAD ID: 62425 Int'l Des: 2024-249 Owner: SPXS Country: US Constellation: starlink
LEOCIRCULAR

About Starlink 32283

Description loading...

Live Position

Loading 3D Globe...

Upcoming Passes

Altitude History

Altitude vs Time

uPlot chart will show altitude changes over time

Two-Line Element Set

1 62425U 24249S 25352.47240820 .00018883 00000-0 69389-3 0 9990
2 62425 43.0045 49.1869 0001830 280.4216 79.6430 15.27582409 55438
Epoch: Dec 18, 2025 • Age: 43 hours

Current Status

Altitude 484.3 km
Velocity 7.63 km/s
Sub-Earth Point 31.80°N, 97.42°W
Launch Date Dec 23, 2024
Age 0.9 years
Type internet

Technical Details

Classification Payload
Mass 730.00 kg
Dry Mass 700.00 kg
Total Mass 730.00 kg
Length 0.30 m
Diameter 4.10 m
Span 29.00 m
Shape Box + pan
Manufacturer SPXS
Bus Type Starlink V2M
Phase Status In Orbit
Owner/State SPXS/US

Large Constellations

Loading constellations...